Date String (YYYY-MM-DD hh:mm:ss) UTC,Instrument flags,absolute air pressure of the measurement (hPa),sample flow rate (lpm),inlet stack bypass flow (lpm),air temperature of the measurement (°C),ambient temperature measured by the external sensor (°C),aerosol sample conditioner tube jacket temperature (°C),OPC LED temperature (°C),internal box temperature (°C),relative humidity of the measurement (%),span deviation,mass concentration of particles derived from Lorenz-Mie calculation of OPC scattering (μg/m³),mass concentration of particles derived from Lorenz-Mie calculation of OPC scattering (μg/m³),mass concentration of particles derived from Lorenz-Mie calculation of OPC scattering (μg/m³)
DateTimeUTC,F1_M11,P_M11,Q1_M11,Q2_M11,T1_M11,T2_M11,T3_M11,T4_M11,T5_M11,U1_M11,ZSPAN_M11,X0_M11,X2_M11,X1_M11
2023-09-09 16:00:00,SystemResetWarning,0838.0,5.01,000.00,028.3,026.5,000.0,036.7,029.8,16.2,0000.0,0010.15,0002.84,0001.62
2023-09-09 16:01:00,SystemResetWarning,0838.0,5.00,000.00,028.3,026.8,000.0,036.7,029.9,15.6,0000.0,0008.92,0002.84,0001.64
2023-09-09 16:02:00,SystemResetWarning,0838.0,5.00,000.00,028.4,027.0,000.0,036.7,030.0,15.4,0000.0,0008.97,0002.80,0001.64
2023-09-09 16:03:00,SystemResetWarning,0838.0,5.00,000.00,028.4,027.2,000.0,036.7,030.0,15.4,0000.0,0008.96,0002.77,0001.65
2023-09-09 16:04:00,SystemResetWarning,0838.0,4.99,000.00,028.4,026.9,000.0,036.7,030.0,15.6,0000.0,0008.83,0002.72,0001.65
2023-09-09 16:05:00,SystemResetWarning,0838.0,5.00,000.00,028.4,025.4,000.0,036.6,029.8,15.9,0000.0,0008.85,0002.67,0001.65
2023-09-09 16:06:00,SystemResetWarning,0837.9,5.01,000.00,028.3,024.6,000.0,036.6,029.7,16.1,0000.0,0009.25,0002.64,0001.64
2023-09-09 16:07:00,SystemResetWarning,0838.0,5.01,000.00,028.3,024.9,000.0,036.5,029.6,15.0,0000.0,0009.75,0002.70,0001.64
2023-09-09 16:08:00,SystemResetWarning,0838.0,5.00,000.00,028.2,025.2,000.0,036.5,029.5,15.3,0000.0,0010.35,0002.78,0001.63
2023-09-09 16:09:00,SystemResetWarning,0837.9,5.00,000.00,028.2,025.6,000.0,036.6,029.6,15.1,0000.0,0009.84,0002.84,0001.62
2023-09-09 16:10:00,SystemResetWarning,0838.0,5.00,000.00,028.2,025.9,000.0,036.6,029.6,14.9,0000.0,0010.17,0002.79,0001.59
2023-09-09 16:11:00,SystemResetWarning,0838.0,5.00,000.00,028.2,026.2,000.0,036.6,029.7,14.6,0000.0,0010.08,0002.69,0001.58
2023-09-09 16:12:00,SystemResetWarning,0838.0,4.99,000.00,028.2,026.5,000.0,036.6,029.8,15.0,0000.0,0009.96,0002.63,0001.57
2023-09-09 16:13:00,SystemResetWarning,0838.1,4.99,000.00,028.3,026.8,000.0,036.6,029.9,15.4,0000.0,0009.95,0002.68,0001.56
2023-09-09 16:14:00,SystemResetWarning,0838.1,5.01,000.00,028.3,027.0,000.0,036.6,029.9,15.8,0000.0,0010.25,0002.75,0001.55
2023-09-09 16:15:00,SystemResetWarning,0838.1,5.01,000.00,028.3,027.1,000.0,036.7,030.0,15.3,0000.0,0011.19,0002.80,0001.55
2023-09-09 16:16:00,SystemResetWarning,0838.1,5.00,000.00,028.4,027.3,000.0,036.7,030.0,15.8,0000.0,0011.38,0002.84,0001.55
2023-09-09 16:17:00,SystemResetWarning,0838.2,4.98,000.00,028.4,026.7,000.0,036.6,030.0,16.1,0000.0,0010.99,0002.80,0001.55
2023-09-09 16:18:00,SystemResetWarning,0838.1,5.00,000.00,028.4,025.2,000.0,036.5,029.7,15.9,0000.0,0010.32,0002.78,0001.56
2023-09-09 16:19:00,SystemResetWarning,0838.0,5.01,000.00,028.3,024.7,000.0,036.5,029.7,15.7,0000.0,0008.84,0002.70,0001.57
2023-09-09 16:20:00,SystemResetWarning,0838.0,5.01,000.00,028.3,025.0,000.0,036.5,029.6,16.1,0000.0,0008.72,0002.62,0001.57
2023-09-09 16:21:00,SystemResetWarning,0838.0,4.98,000.00,028.2,025.3,000.0,036.5,029.5,16.6,0000.0,0008.58,0002.60,0001.58
2023-09-09 16:22:00,SystemResetWarning,0837.9,5.00,000.00,028.2,025.7,000.0,036.5,029.6,16.7,0000.0,0009.09,0002.66,0001.61
2023-09-09 16:23:00,SystemResetWarning,0838.0,5.02,000.00,028.2,026.0,000.0,036.5,029.7,16.2,0000.0,0009.88,0002.69,0001.61
2023-09-09 16:24:00,SystemResetWarning,0838.0,5.00,000.00,028.2,026.3,000.0,036.5,029.7,16.2,0000.0,0010.82,0002.73,0001.63
2023-09-09 16:25:00,SystemResetWarning,0838.0,4.99,000.00,028.2,026.6,000.0,036.6,029.8,16.4,0000.0,0010.70,0002.66,0001.64
2023-09-09 16:26:00,SystemResetWarning,0838.0,5.00,000.00,028.3,026.8,000.0,036.6,029.9,16.3,0000.0,0010.22,0002.64,0001.65
2023-09-09 16:27:00,SystemResetWarning,0838.0,5.02,000.00,028.3,027.0,000.0,036.6,029.9,16.1,0000.0,0009.80,0002.63,0001.63
2023-09-09 16:28:00,SystemResetWarning,0838.0,5.00,000.00,028.3,027.2,000.0,036.6,030.0,15.6,0000.0,0009.82,0002.65,0001.63
2023-09-09 16:29:00,SystemResetWarning,0838.0,4.99,000.00,028.4,027.0,000.0,036.6,030.0,15.8,0000.0,0010.00,0002.57,0001.62
2023-09-09 16:30:00,SystemResetWarning,0838.0,5.00,000.00,028.4,025.5,000.0,036.5,029.7,16.1,0000.0,0010.48,0002.60,0001.60
2023-09-09 16:31:00,SystemResetWarning,0838.0,5.01,000.00,028.3,024.6,000.0,036.5,029.6,16.0,0000.0,0010.64,0002.66,0001.59
2023-09-09 16:32:00,SystemResetWarning,0838.0,5.01,000.00,028.2,024.8,000.0,036.4,029.5,16.5,0000.0,0011.67,0002.65,0001.59
2023-09-09 16:33:00,SystemResetWarning,0838.0,4.99,000.00,028.1,025.1,000.0,036.4,029.5,16.5,0000.0,0012.01,0002.66,0001.60
2023-09-09 16:34:00,SystemResetWarning,0838.0,5.00,000.00,028.1,025.5,000.0,036.5,029.5,16.1,0000.0,0011.65,0002.74,0001.62
2023-09-09 16:35:00,SystemResetWarning,0838.0,5.00,000.00,028.1,025.9,000.0,036.5,029.6,15.8,0000.0,0011.39,0002.78,0001.64
2023-09-09 16:36:00,SystemResetWarning,0838.0,5.00,000.00,028.1,026.2,000.0,036.5,029.7,16.1,0000.0,0011.31,0002.78,0001.65
2023-09-09 16:37:00,SystemResetWarning,0838.0,5.00,000.00,028.2,026.5,000.0,036.5,029.7,16.4,0000.0,0011.25,0002.75,0001.65
2023-09-09 16:38:00,SystemResetWarning,0838.0,5.00,000.00,028.2,026.7,000.0,036.5,029.8,16.4,0000.0,0012.05,0002.71,0001.67
2023-09-09 16:39:00,SystemResetWarning,0838.0,5.00,000.00,028.2,026.9,000.0,036.6,029.9,16.2,0000.0,0012.11,0002.70,0001.69
2023-09-09 16:40:00,SystemResetWarning,0838.0,5.00,000.00,028.3,027.1,000.0,036.6,029.9,16.5,0000.0,0012.86,0002.75,0001.70
2023-09-09 16:41:00,SystemResetWarning,0838.0,5.00,000.00,028.3,027.1,000.0,036.6,030.0,17.1,0000.0,0013.41,0002.78,0001.71
2023-09-09 16:42:00,SystemResetWarning,0838.0,4.98,000.00,028.3,025.9,000.0,036.5,029.8,17.2,0000.0,0013.48,0002.75,0001.73
2023-09-09 16:43:00,SystemResetWarning,0838.0,5.02,000.00,028.2,024.7,000.0,036.4,029.5,16.5,0000.0,0012.71,0002.74,0001.71
2023-09-09 16:44:00,SystemResetWarning,0838.0,5.01,000.00,028.2,024.8,000.0,036.4,029.5,16.5,0000.0,0011.58,0002.68,0001.69
2023-09-09 16:45:00,SystemResetWarning,0838.0,4.99,000.00,028.1,025.1,000.0,036.4,029.4,16.2,0000.0,0011.27,0002.58,0001.68
2023-09-09 16:46:00,SystemResetWarning,0837.9,5.00,000.00,028.1,025.4,000.0,036.4,029.5,16.6,0000.0,0011.02,0002.50,0001.65
2023-09-09 16:47:00,SystemResetWarning,0838.0,5.00,000.00,028.1,025.8,000.0,036.5,029.6,16.2,0000.0,0010.91,0002.54,0001.63
2023-09-09 16:48:00,SystemResetWarning,0838.0,5.00,000.00,028.1,026.1,000.0,036.5,029.6,15.8,0000.0,0010.87,0002.63,0001.62
2023-09-09 16:49:00,SystemResetWarning,0838.0,4.99,000.00,028.1,026.4,000.0,036.5,029.7,16.4,0000.0,0009.95,0002.69,0001.62
2023-09-09 16:50:00,SystemResetWarning,0837.9,5.00,000.00,028.2,026.7,000.0,036.5,029.8,17.2,0000.0,0009.88,0002.70,0001.61
2023-09-09 16:51:00,SystemResetWarning,0837.9,5.00,000.00,028.2,026.9,000.0,036.5,029.9,17.2,0000.0,0009.38,0002.76,0001.62
2023-09-09 16:52:00,SystemResetWarning,0837.9,5.01,000.00,028.3,027.1,000.0,036.5,029.9,17.3,0000.0,0008.40,0002.81,0001.63
2023-09-09 16:53:00,SystemResetWarning,0837.9,4.99,000.00,028.3,026.2,000.0,036.5,029.8,16.0,0000.0,0007.97,0002.84,0001.64
2023-09-09 16:54:00,SystemResetWarning,0837.8,5.01,000.00,028.2,024.8,000.0,036.4,029.5,15.9,0000.0,0007.39,0002.86,0001.69
2023-09-09 16:55:00,SystemResetWarning,0837.8,5.01,000.00,028.1,024.6,000.0,036.3,029.5,16.1,0000.0,0007.51,0002.99,0001.74
2023-09-09 16:56:00,SystemResetWarning,0837.8,4.99,000.00,028.1,024.9,000.0,036.3,029.4,15.8,0000.0,0007.67,0003.09,0001.77
2023-09-09 16:57:00,SystemResetWarning,0837.8,5.00,000.00,028.0,025.3,000.0,036.4,029.4,15.9,0000.0,0007.76,0003.16,0001.80
2023-09-09 16:58:00,SystemResetWarning,0837.8,5.01,000.00,028.0,025.7,000.0,036.4,029.5,16.0,0000.0,0008.06,0003.16,0001.85
2023-09-09 16:59:00,SystemResetWarning,0837.8,5.00,000.00,028.0,026.0,000.0,036.4,029.5,16.4,0000.0,0007.93,0003.12,0001.88
